Corsicana, TX

4:58 AM CDT on September 21, 2017 (GMT -0500)
Campbell-Corsicana Municipal

Weather History for KCRS - February, 2014

Change the Weather History Date:

Tuesday, February 4, 2014

  Actual Average (KTYR) Record (KTYR)
Temperature  
Mean Temperature 40 °F -  
Max Temperature 46 °F 56 °F 80 °F (1987)
Min Temperature 35 °F 37 °F 9 °F (1996)
Degree Days  
Heating Degree Days 24    
Moisture  
Dew Point 39 °F    
Average Humidity 95    
Maximum Humidity 100    
Minimum Humidity 86    
Precipitation  
Precipitation 0.23 in - - ()
Sea Level Pressure  
Sea Level Pressure 29.99 in    
Wind  
Wind Speed 5 mph (East)    
Max Wind Speed 10 mph    
Max Gust Speed -    
Visibility 5 miles    
Events Fog , Rain    
Averages and records for this station are not official NWS values.
T = Trace of Precipitation, MM = Missing Value Source: NWS Daily Summary

Daily Weather History Graph

Daily Weather History Graph

Search for Another Location

Airport or City:

Trip Planner

Search our weather history database for the weather conditions in past years. The results will help you decide how hot, cold, wet, or windy it might be!

Date:

Astronomy

Feb. 04, 2014 Rise Set
Actual Time 7:17 AM CST 6:02 PM CST
Civil Twilight 6:51 AM CST 6:27 PM CST
Nautical Twilight 6:22 AM CST 6:56 PM CST
Astronomical Twilight 5:53 AM CST 7:25 PM CST
Moon 10:17 AM CST (2/4) 11:33 PM CST (2/4)
Length of Visible Light 11h 36m
Length of Day
10h 45m
Waxing Crescent, 29% of the Moon is Illuminated
Feb 4
Waxing Crescent
Feb 6
First Quarter
Feb 14
Full
Feb 22
Last Quarter
Mar 1
New

Hourly Weather History & Observations

Time (CST) Temp. Windchill Dew Point Humidity Pressure Visibility Wind Dir Wind Speed Gust Speed Precip Events Conditions
12:53 AM 39.9 °F 35.1 °F 37.0 °F 89% 29.99 in 7.0 mi East 6.9 mph - N/A   Overcast
1:53 AM 39.9 °F - 37.9 °F 93% 30.00 in 7.0 mi Calm Calm - N/A   Overcast
2:53 AM 39.9 °F - 39.0 °F 97% 29.99 in 2.5 mi Calm Calm - 0.00 in Rain Light Rain
3:18 AM 39.9 °F 35.8 °F 37.9 °F 93% 29.96 in 3.0 mi ENE 5.8 mph - 0.01 in Rain Light Rain
3:53 AM 39.0 °F 33.4 °F 39.0 °F 100% 29.98 in 2.5 mi East 8.1 mph - 0.01 in Rain Light Rain
4:53 AM 39.0 °F 34.8 °F 37.9 °F 96% 29.97 in 2.5 mi ENE 5.8 mph - 0.01 in Rain Light Rain
5:00 AM 39.0 °F 34.8 °F 37.9 °F 96% 29.96 in 3.0 mi ENE 5.8 mph - 0.00 in Rain Light Rain
5:53 AM 39.0 °F 35.7 °F 39.0 °F 100% 29.97 in 3.0 mi ENE 4.6 mph - 0.04 in Rain Light Rain
6:31 AM 39.9 °F 37.8 °F 39.0 °F 97% 29.98 in 2.5 mi NNE 3.5 mph - 0.03 in Rain Light Rain
6:53 AM 39.9 °F 35.8 °F 39.0 °F 97% 29.98 in 2.5 mi East 5.8 mph - 0.05 in Rain Rain
7:05 AM 39.9 °F 35.8 °F 39.0 °F 97% 29.97 in 3.0 mi ENE 5.8 mph - 0.00 in Rain Light Rain
7:22 AM 39.9 °F 37.8 °F 39.0 °F 97% 29.97 in 3.0 mi ENE 3.5 mph - 0.01 in Rain Rain
7:53 AM 39.9 °F 35.8 °F 39.0 °F 97% 29.98 in 3.0 mi East 5.8 mph - 0.01 in Rain Light Rain
8:01 AM 39.9 °F 35.1 °F 39.0 °F 97% 29.97 in 1.8 mi East 6.9 mph - 0.03 in Rain Rain
8:11 AM 39.9 °F 37.8 °F 39.0 °F 97% 29.97 in 2.5 mi ENE 3.5 mph - 0.04 in Rain Rain
8:28 AM 39.9 °F 36.7 °F 39.0 °F 97% 29.98 in 4.0 mi East 4.6 mph - 0.05 in Rain Light Rain
8:41 AM 39.9 °F 36.7 °F 39.0 °F 97% 29.98 in 4.0 mi East 4.6 mph - 0.05 in Rain Light Rain
8:53 AM 39.9 °F 35.8 °F 39.0 °F 97% 29.99 in 3.0 mi ESE 5.8 mph - 0.05 in Rain Light Rain
9:01 AM 39.9 °F 35.1 °F 39.0 °F 97% 29.98 in 2.5 mi ESE 6.9 mph - 0.00 in Rain Light Rain
9:17 AM 39.9 °F 35.1 °F 39.0 °F 97% 29.98 in 1.8 mi ESE 6.9 mph - 0.04 in Rain Heavy Rain
9:28 AM 39.9 °F 35.1 °F 39.0 °F 97% 29.98 in 2.5 mi ESE 6.9 mph - 0.06 in Rain Light Rain
9:36 AM 39.9 °F 34.5 °F 39.0 °F 97% 29.98 in 3.0 mi ESE 8.1 mph - 0.06 in Rain Rain
9:53 AM 41.0 °F 35.8 °F 39.0 °F 93% 29.98 in 5.0 mi SE 8.1 mph - 0.06 in Rain Light Rain
10:32 AM 41.0 °F 35.8 °F 39.9 °F 96% 29.97 in 6.0 mi SE 8.1 mph - 0.00 in   Overcast
10:53 AM 42.1 °F 36.6 °F 39.9 °F 92% 29.96 in 7.0 mi SSE 9.2 mph - 0.00 in   Overcast
11:53 AM 43.0 °F 38.2 °F 41.0 °F 93% 29.94 in 10.0 mi SSE 8.1 mph - N/A   Overcast
12:53 PM 44.1 °F 40.8 °F 42.1 °F 93% 29.92 in 10.0 mi SSW 5.8 mph - N/A   Overcast
1:53 PM 45.0 °F 41.2 °F 43.0 °F 93% 29.90 in 10.0 mi West 6.9 mph - N/A   Overcast
2:18 PM 45.0 °F 39.7 °F 43.0 °F 93% 29.89 in 10.0 mi West 10.4 mph - N/A   Overcast
2:53 PM 46.0 °F 41.9 °F 43.0 °F 89% 29.90 in 10.0 mi West 8.1 mph - N/A   Overcast
3:53 PM 46.0 °F 43.1 °F 42.1 °F 86% 29.89 in 10.0 mi NW 5.8 mph - N/A   Overcast
4:53 PM 46.9 °F - 43.0 °F 86% 29.91 in 10.0 mi NNE 5.8 mph - N/A   Overcast
5:14 PM 46.9 °F - 43.0 °F 86% 29.92 in 10.0 mi Calm Calm - N/A   Overcast
5:53 PM 46.0 °F 44.8 °F 42.1 °F 86% 29.94 in 10.0 mi NE 3.5 mph - N/A   Mostly Cloudy
6:17 PM 45.0 °F 42.6 °F 42.1 °F 90% 29.95 in 10.0 mi NE 4.6 mph - N/A   Mostly Cloudy
6:31 PM 45.0 °F 42.6 °F 42.1 °F 90% 29.95 in 10.0 mi NE 4.6 mph - N/A   Scattered Clouds
6:53 PM 45.0 °F 42.6 °F 42.1 °F 90% 29.98 in 10.0 mi North 4.6 mph - N/A   Clear
7:53 PM 42.1 °F 38.4 °F 39.9 °F 92% 30.01 in 9.0 mi North 5.8 mph - N/A   Clear
8:53 PM 41.0 °F 38.0 °F 39.0 °F 93% 30.05 in 6.0 mi North 4.6 mph - N/A   Clear
9:53 PM 39.0 °F - 37.9 °F 96% 30.08 in 2.5 mi Calm Calm - N/A   Clear
9:56 PM 37.0 °F 34.5 °F 37.0 °F 100% 30.07 in 0.8 mi SSE 3.5 mph - N/A   Clear
10:04 PM 36.0 °F 33.3 °F 35.1 °F 97% 30.07 in 0.2 mi SE 3.5 mph - N/A Fog Fog
10:14 PM 37.0 °F 34.5 °F 36.0 °F 96% 30.07 in 0.5 mi SSE 3.5 mph - N/A Fog Fog
10:23 PM 35.1 °F 30.1 °F 35.1 °F 100% 30.08 in 0.2 mi South 5.8 mph - N/A Fog Fog
10:53 PM 37.0 °F 34.5 °F 37.0 °F 100% 30.11 in 0.2 mi SSW 3.5 mph - N/A Fog Fog
11:34 PM 37.9 °F 34.4 °F 37.0 °F 97% 30.13 in 2.0 mi Variable 4.6 mph - N/A   Mostly Cloudy
11:44 PM 39.0 °F 33.4 °F 37.9 °F 96% 30.14 in 5.0 mi NW 8.1 mph - N/A   Mostly Cloudy
11:53 PM 39.0 °F 34.0 °F 37.9 °F 96% 30.15 in 7.0 mi NNW 6.9 mph - N/A   Mostly Cloudy